Location: Unspecified
(43.4680°N, 87.1740°E)
Time: 14:29:36
(UTC+00:00)

Cosmos 1356 Rocket - Pass Details

Date: 03 August 2021
Orbit: 543 x 597 km, 81.2° (Epoch: 19 September)

Event Time Altitude Azimuth Distance (km) Brightness Sun altitude
Exits shadow 18:41:23 16° 66° (ENE) 1,473 5.8 -29.0°
Drops below altitude 10° 18:42:55 10° 46° (NE) 1,817 6.6 -29.0°
Sets 18:45:36 0° 27° (NNE) 2,715 7.9 -28.9°
